TimeCST,TemperatureF,Dew PointF,Humidity,Sea Level PressureIn,VisibilityMPH,Wind Direction,Wind SpeedMPH,Gust SpeedMPH,PrecipitationIn,Events,Conditions,WindDirDegrees,DateUTC
12:56 AM,48.0,28.0,46,30.42,10.0,NNE,10.4,-,N/A,,Clear,30,2012-12-30 06:56:00
1:56 AM,48.0,30.0,50,30.40,10.0,NNE,12.7,-,N/A,,Clear,30,2012-12-30 07:56:00
2:56 AM,48.0,30.9,52,30.41,10.0,NNE,15.0,-,N/A,,Clear,30,2012-12-30 08:56:00
3:56 AM,48.0,32.0,54,30.40,10.0,NNE,16.1,-,N/A,,Clear,30,2012-12-30 09:56:00
4:56 AM,48.0,35.1,61,30.38,10.0,NNE,16.1,-,N/A,,Clear,30,2012-12-30 10:56:00
5:56 AM,46.9,34.0,61,30.39,10.0,NNE,18.4,-,N/A,,Clear,30,2012-12-30 11:56:00
6:56 AM,46.9,35.1,63,30.38,10.0,NE,19.6,-,N/A,,Clear,40,2012-12-30 12:56:00
7:56 AM,48.9,37.9,66,30.39,10.0,NE,20.7,-,N/A,,Clear,50,2012-12-30 13:56:00
8:56 AM,51.1,41.0,68,30.39,10.0,NE,19.6,-,N/A,,Clear,40,2012-12-30 14:56:00
9:56 AM,52.0,43.0,71,30.40,10.0,NE,19.6,-,N/A,,Clear,40,2012-12-30 15:56:00
10:56 AM,54.0,44.1,69,30.38,10.0,NE,19.6,-,N/A,,Clear,40,2012-12-30 16:56:00
11:56 AM,55.0,44.1,67,30.35,10.0,NE,19.6,-,N/A,,Mostly Cloudy,40,2012-12-30 17:56:00
12:56 PM,55.0,46.0,72,30.31,10.0,NE,18.4,-,N/A,,Partly Cloudy,50,2012-12-30 18:56:00
1:56 PM,59.0,48.9,69,30.28,10.0,NE,15.0,-,N/A,,Overcast,40,2012-12-30 19:56:00
2:56 PM,59.0,51.1,75,30.25,10.0,NE,11.5,-,N/A,,Overcast,40,2012-12-30 20:56:00
3:00 PM,59.0,51.8,77,30.25,10.0,NE,10.4,-,N/A,,Mostly Cloudy,40,2012-12-30 21:00:00
3:56 PM,64.0,52.0,65,30.22,10.0,East,11.5,-,N/A,,Mostly Cloudy,100,2012-12-30 21:56:00
4:56 PM,63.0,53.1,70,30.20,10.0,ESE,12.7,-,N/A,,Overcast,110,2012-12-30 22:56:00
5:56 PM,63.0,53.1,70,30.19,10.0,ESE,12.7,-,N/A,,Overcast,120,2012-12-30 23:56:00
6:56 PM,64.0,54.0,70,30.19,10.0,ESE,11.5,-,N/A,,Overcast,120,2012-12-31 00:56:00
7:56 PM,64.0,55.0,73,30.19,10.0,SE,12.7,-,N/A,,Overcast,130,2012-12-31 01:56:00
8:56 PM,64.9,55.9,73,30.17,10.0,SE,13.8,-,N/A,,Overcast,130,2012-12-31 02:56:00
9:05 PM,64.4,55.4,73,30.17,10.0,ESE,17.3,25.3,0.00,Rain,Light Rain,120,2012-12-31 03:05:00
9:18 PM,64.4,57.2,77,30.17,10.0,SE,11.5,-,0.00,,Overcast,130,2012-12-31 03:18:00
9:56 PM,66.0,57.0,73,30.18,10.0,SE,15.0,-,0.00,,Overcast,140,2012-12-31 03:56:00
10:56 PM,64.0,60.1,87,30.16,10.0,SE,13.8,-,0.00,,Overcast,130,2012-12-31 04:56:00
11:56 PM,64.9,61.0,87,30.15,10.0,SSE,13.8,-,0.00,,Overcast,150,2012-12-31 05:56:00